Simultaneous Nadir Overpasses (SNOs) Predictions

Prediction of SNOs between METOP-A and NOAA-19 Satellite Orbit:

Table of predicted SNOs for the next 14.0 days since TLE Epoch: 10/20/2018
Index Date (METOP-A) Time (METOP-A) Lat,Lon (METOP-A) SZA (METOP-A ) Date (NOAA-19) Time (NOAA-19) Lat,Lon (NOAA-19) SZA (NOAA-19 ) Distance(km) Time Diff (sec)
1 10/30/2018 06:14:12 79.32, 98.53 93.44 10/30/2018 06:13:08 79.30, 94.17 93.23 89.81 64
2 10/30/2018 07:05:01 -79.03, -96.16 86.92 10/30/2018 07:04:03 -79.02, -96.18 86.95 1.66 58
3 10/30/2018 07:55:42 79.01, 71.02 93.07 10/30/2018 07:55:00 79.02, 71.07 93.07 1.61 42
4 10/30/2018 08:46:23 -79.01,-121.64 86.93 10/30/2018 08:46:04 -79.02,-121.68 86.93 1.09 19
5 10/30/2018 09:37:04 78.99, 45.53 93.06 10/30/2018 09:37:01 79.02, 45.58 93.09 3.46 3
6 10/30/2018 10:27:45 -78.99,-147.12 86.93 10/30/2018 10:28:05 -79.02,-147.18 86.90 3.21 20
7 10/30/2018 11:18:25 79.00, 20.30 93.10 10/30/2018 11:19:01 78.98, 20.35 93.09 2.37 36
8 10/30/2018 12:09:06 -79.01,-172.36 86.89 10/30/2018 12:10:05 -78.98,-172.42 86.90 2.71 59




NCC Satellite Simultaneous Nadir Overpasses (SNOs) Prediction Service
